When you browse on this site, cookies collect data to enhance your experience and personalize the content and advertising you see.
Visit our Privacy Policy to learn more. By continuing to use the site, you agree to this use of cookies and data.
  • In Hungary
  • List of Countries
  • For 7 days
  • Water Temperature
  • Satellite Maps
  • Weather Map
  • News
  • Weather Widgets
  • user-avatar
    Login

    Hourly Weather Chutovo

    Today, 19 April, Friday

    Time Temperature Precipitation Wind Pressure Humidity
    00:00 +6°C° 0 mm 2 mps 759 mmHg 54%
    01:00 +5°C° 0 mm 2 mps 759 mmHg 56%
    02:00 +5°C° 0 mm 1 mps 759 mmHg 58%
    03:00 +4°C° 0 mm 2 mps 759 mmHg 59%
    04:00 +4°C° 0 mm 2 mps 759 mmHg 60%
    05:00 +4°C° 0 mm 2 mps 759 mmHg 61%
    06:00 +4°C° 0 mm 3 mps 759 mmHg 56%
    07:00 +7°C° 0 mm 3 mps 759 mmHg 50%
    08:00 +7°C° 0 mm 4 mps 759 mmHg 42%
    09:00 +8°C° 0 mm 5 mps 759 mmHg 40%
    10:00 +9°C° 0 mm 5 mps 759 mmHg 38%
    11:00 +10°C° 0 mm 5 mps 759 mmHg 36%
    12:00 +10°C° 0 mm 5 mps 759 mmHg 35%
    13:00 +10°C° 0 mm 5 mps 759 mmHg 35%
    14:00 +10°C° 0 mm 5 mps 759 mmHg 35%
    15:00 +11°C° 0 mm 4 mps 759 mmHg 36%
    16:00 +11°C° 0 mm 4 mps 759 mmHg 37%
    17:00 +11°C° 0 mm 4 mps 759 mmHg 38%
    18:00 +10°C° 0 mm 3 mps 760 mmHg 43%
    19:00 +9°C° 0 mm 3 mps 760 mmHg 47%
    20:00 +8°C° 0 mm 2 mps 760 mmHg 51%
    21:00 +7°C° 0 mm 2 mps 760 mmHg 53%
    22:00 +6°C° 0 mm 2 mps 760 mmHg 55%
    23:00 +6°C° 0 mm 2 mps 761 mmHg 56%

    Tomorrow, 20 April, Saturday

    Time Temperature Precipitation Wind Pressure Humidity
    00:00 +5°C° 0 mm 2 mps 761 mmHg 57%
    01:00 +5°C° 0 mm 2 mps 761 mmHg 58%
    02:00 +5°C° 0 mm 2 mps 761 mmHg 58%
    03:00 +4°C° 0 mm 2 mps 761 mmHg 59%
    04:00 +4°C° 0 mm 2 mps 760 mmHg 59%
    05:00 +5°C° 0 mm 1 mps 760 mmHg 60%
    06:00 +6°C° 0 mm 2 mps 761 mmHg 54%
    07:00 +7°C° 0 mm 2 mps 761 mmHg 48%
    08:00 +9°C° 0 mm 2 mps 761 mmHg 43%
    09:00 +10°C° 0 mm 2 mps 761 mmHg 40%
    10:00 +11°C° 0 mm 3 mps 761 mmHg 36%
    11:00 +12°C° 0 mm 3 mps 760 mmHg 33%
    12:00 +12°C° 0 mm 3 mps 760 mmHg 33%
    13:00 +13°C° 0 mm 2 mps 760 mmHg 33%
    14:00 +13°C° 0 mm 2 mps 760 mmHg 33%
    15:00 +13°C° 0 mm 2 mps 760 mmHg 34%
    16:00 +13°C° 0 mm 2 mps 759 mmHg 35%
    17:00 +13°C° 0 mm 2 mps 759 mmHg 36%
    18:00 +12°C° 0 mm 2 mps 759 mmHg 39%
    19:00 +12°C° 0 mm 2 mps 760 mmHg 42%
    20:00 +10°C° 0 mm 2 mps 760 mmHg 45%
    21:00 +10°C° 0 mm 2 mps 760 mmHg 46%
    22:00 +9°C° 0 mm 2 mps 760 mmHg 47%
    23:00 +9°C° 0 mm 2 mps 760 mmHg 49%

    Day after tomorrow, 21 April, Sunday

    Time Temperature Precipitation Wind Pressure Humidity
    00:00 +9°C° 0 mm 2 mps 760 mmHg 50%
    01:00 +9°C° 0 mm 2 mps 760 mmHg 52%
    02:00 +8°C° 0 mm 2 mps 760 mmHg 53%
    03:00 +8°C° 0 mm 2 mps 760 mmHg 54%
    04:00 +8°C° 0 mm 2 mps 760 mmHg 56%
    05:00 +7°C° 0 mm 2 mps 760 mmHg 57%
    06:00 +9°C° 0 mm 2 mps 760 mmHg 54%
    07:00 +10°C° 0 mm 2 mps 760 mmHg 50%
    08:00 +12°C° 0 mm 2 mps 760 mmHg 46%
    09:00 +11°C° 0 mm 3 mps 760 mmHg 43%
    10:00 +12°C° 0 mm 3 mps 760 mmHg 39%
    11:00 +12°C° 0 mm 3 mps 760 mmHg 36%
    12:00 +13°C° 0 mm 3 mps 760 mmHg 36%
    13:00 +13°C° 0 mm 3 mps 760 mmHg 37%
    14:00 +13°C° 0 mm 3 mps 760 mmHg 37%
    15:00 +13°C° 0 mm 3 mps 760 mmHg 39%
    16:00 +13°C° 0 mm 3 mps 760 mmHg 40%
    17:00 +12°C° 0 mm 3 mps 760 mmHg 42%
    18:00 +11°C° 0 mm 3 mps 760 mmHg 45%
    19:00 +10°C° 0 mm 3 mps 760 mmHg 49%
    20:00 +9°C° 0 mm 2 mps 761 mmHg 53%
    21:00 +9°C° 0 mm 2 mps 761 mmHg 53%
    22:00 +9°C° 0 mm 2 mps 761 mmHg 54%
    23:00 +9°C° 0 mm 2 mps 761 mmHg 55%

    22 April, Monday

    Time Temperature Precipitation Wind Pressure Humidity
    00:00 +9°C° 0 mm 2 mps 761 mmHg 55%
    01:00 +8°C° 0 mm 2 mps 762 mmHg 56%
    02:00 +8°C° 0 mm 2 mps 762 mmHg 57%
    03:00 +8°C° 0 mm 2 mps 762 mmHg 58%
    04:00 +8°C° 0 mm 2 mps 762 mmHg 59%
    05:00 +8°C° 0 mm 2 mps 762 mmHg 61%
    06:00 +9°C° 0 mm 2 mps 762 mmHg 57%
    07:00 +10°C° 0 mm 2 mps 763 mmHg 54%
    08:00 +11°C° 0 mm 3 mps 763 mmHg 50%
    09:00 +12°C° 0 mm 3 mps 763 mmHg 46%
    10:00 +12°C° 0 mm 3 mps 763 mmHg 43%
    11:00 +13°C° 0 mm 3 mps 763 mmHg 39%
    12:00 +13°C° 0 mm 3 mps 763 mmHg 39%
    13:00 +13°C° 0 mm 3 mps 762 mmHg 39%
    14:00 +13°C° 0 mm 3 mps 762 mmHg 39%
    15:00 +14°C° 0 mm 2 mps 762 mmHg 41%
    16:00 +14°C° 0 mm 2 mps 762 mmHg 43%
    17:00 +14°C° 0 mm 2 mps 762 mmHg 45%
    18:00 +13°C° 0 mm 2 mps 762 mmHg 47%
    19:00 +12°C° 0 mm 2 mps 763 mmHg 49%
    20:00 +12°C° 0 mm 1 mps 763 mmHg 52%
    21:00 +11°C° 0 mm 1 mps 763 mmHg 53%
    22:00 +11°C° 0 mm 1 mps 763 mmHg 54%
    23:00 +10°C° 0 mm 1 mps 763 mmHg 56%

    23 April, Tuesday

    Time Temperature Precipitation Wind Pressure Humidity
    00:00 +10°C° 0 mm 1 mps 763 mmHg 57%
    01:00 +10°C° 0 mm 1 mps 764 mmHg 58%
    02:00 +9°C° 0 mm 1 mps 764 mmHg 59%
    03:00 +9°C° 0 mm 1 mps 764 mmHg 60%
    04:00 +9°C° 0 mm 1 mps 764 mmHg 60%
    05:00 +9°C° 0 mm 1 mps 764 mmHg 61%
    06:00 +10°C° 0 mm 2 mps 764 mmHg 57%
    07:00 +12°C° 0 mm 2 mps 764 mmHg 53%
    08:00 +13°C° 0 mm 2 mps 764 mmHg 49%
    09:00 +14°C° 0 mm 2 mps 764 mmHg 46%
    10:00 +14°C° 0 mm 2 mps 764 mmHg 43%
    11:00 +15°C° 0 mm 2 mps 764 mmHg 41%
    12:00 +15°C° 0 mm 2 mps 764 mmHg 40%
    13:00 +15°C° 0 mm 1 mps 764 mmHg 40%
    14:00 +15°C° 0 mm 1 mps 764 mmHg 39%
    15:00 +15°C° 0 mm 1 mps 764 mmHg 40%
    16:00 +15°C° 0 mm 1 mps 764 mmHg 41%
    17:00 +15°C° 0 mm 2 mps 763 mmHg 42%
    18:00 +15°C° 0 mm 1 mps 764 mmHg 44%
    19:00 +14°C° 0 mm 1 mps 764 mmHg 47%
    20:00 +13°C° 0 mm 1 mps 764 mmHg 49%
    21:00 +13°C° 0 mm 1 mps 764 mmHg 51%
    22:00 +12°C° 0 mm 1 mps 764 mmHg 52%
    23:00 +12°C° 0 mm 1 mps 764 mmHg 53%

    24 April, Wednesday

    Time Temperature Precipitation Wind Pressure Humidity
    00:00 +12°C° 0 mm 1 mps 764 mmHg 53%
    01:00 +12°C° 0 mm 1 mps 765 mmHg 54%
    02:00 +12°C° 0 mm 1 mps 765 mmHg 54%
    03:00 +11°C° 0 mm 1 mps 765 mmHg 55%
    04:00 +11°C° 0 mm 1 mps 765 mmHg 57%
    05:00 +11°C° 0 mm 1 mps 765 mmHg 58%
    06:00 +12°C° 0 mm 2 mps 765 mmHg 55%
    07:00 +13°C° 0 mm 2 mps 765 mmHg 52%
    08:00 +15°C° 0 mm 2 mps 765 mmHg 49%
    09:00 +15°C° 0 mm 2 mps 765 mmHg 46%
    10:00 +16°C° 0 mm 2 mps 765 mmHg 42%
    11:00 +17°C° 0 mm 2 mps 765 mmHg 39%
    12:00 +17°C° 0 mm 2 mps 764 mmHg 39%
    13:00 +18°C° 0 mm 1 mps 764 mmHg 39%
    14:00 +18°C° 0 mm 1 mps 764 mmHg 39%
    15:00 +18°C° 0 mm 1 mps 764 mmHg 41%
    16:00 +18°C° 0 mm 1 mps 764 mmHg 43%
    17:00 +18°C° 0 mm 1 mps 764 mmHg 45%
    18:00 +16°C° 0 mm 1 mps 764 mmHg 47%
    19:00 +14°C° 0 mm 0 mps 764 mmHg 49%
    20:00 +13°C° 0 mm 0 mps 764 mmHg 51%
    21:00 +13°C° 0 mm 1 mps 764 mmHg 53%
    22:00 +12°C° 0 mm 1 mps 764 mmHg 55%
    23:00 +12°C° 0 mm 1 mps 764 mmHg 57%
    Show more